GW4589 Weather Reports


time (UTC)temp
F
wind
direction
speed
knots
gust
knots
rain 1hr
in
rain 24hr
in
rain mn
in
humidity
%
barometer
mb
20260906214730 87 125 0.0 0.9 0.00 0.00 0.00 39 1017.2
20260906214226 87 151 0.9 0.9 0.00 0.00 0.00 39 1017.3
20260906213719 87 44 2.6 2.6 0.00 0.00 0.00 39 1017.5
20260906213214 87 102 3.5 3.5 0.00 0.00 0.00 39 1017.5
20260906212711 87 141 0.9 1.7 0.00 0.00 0.00 39 1017.6
20260906212207 88 130 0.0 0.9 0.00 0.00 0.00 39 1017.7
20260906211706 87 169 0.9 0.9 0.00 0.00 0.00 39 1017.9
20260906211202 86 45 3.5 3.5 0.00 0.00 0.00 40 1017.7
20260906210657 86 166 0.0 0.9 0.00 0.00 0.00 39 1017.9
20260906210157 87 163 1.7 2.6 0.00 0.00 0.00 37 1017.9
20260906205652 86 176 0.0 0.0 0.00 0.00 0.00 41 1017.9
20260906205149 87 143 0.0 0.9 0.00 0.00 0.00 40 1017.9
20260906204648 86 166 0.9 1.7 0.00 0.00 0.00 42 1018.0
20260906204143 86 42 3.5 3.5 0.00 0.00 0.00 43 1018.0
20260906203643 86 115 0.9 1.7 0.00 0.00 0.00 44 1018.0
20260906203138 86 134 0.9 1.7 0.00 0.00 0.00 44 1018.4
20260906202635 85 149 0.9 0.9 0.00 0.00 0.00 44 1018.5
20260906202134 85 177 0.9 1.7 0.00 0.00 0.00 44 1018.4
20260906201630 86 169 0.0 0.0 0.00 0.00 0.00 46 1018.3
20260906201128 84 190 0.0 0.9 0.00 0.00 0.00 46 1018.5
20260906200625 84 58 1.7 2.6 0.00 0.00 0.00 47 1018.6
20260906200121 86 18 1.7 5.2 0.00 0.00 0.00 45 1018.5
20260906195620 86 184 0.0 0.0 0.00 0.00 0.00 45 1018.7
20260906195117 84 170 0.9 1.7 0.00 0.00 0.00 45 1018.7
20260906194613 84 122 0.0 0.0 0.00 0.00 0.00 45 1018.8
20260906194109 84 59 3.5 3.5 0.00 0.00 0.00 47 1019.0
20260906193609 84 77 2.6 2.6 0.00 0.00 0.00 46 1018.8
20260906193104 83 184 0.0 0.9 0.00 0.00 0.00 47 1018.8
20260906192559 83 157 0.9 0.9 0.00 0.00 0.00 47 1019.2
20260906192058 84 129 1.7 1.7 0.00 0.00 0.00 46 1019.1
20260906191554 83 177 0.0 0.9 0.00 0.00 0.00 47 1019.2
20260906191053 83 149 0.9 0.9 0.00 0.00 0.00 46 1019.4
20260906190552 84 78 0.9 2.6 0.00 0.00 0.00 45 1019.4
20260906190047 84 166 0.0 0.0 0.00 0.00 0.00 46 1019.3
20260906185546 83 179 0.0 0.0 0.00 0.00 0.00 47 1019.5
20260906185045 84 97 0.9 0.9 0.00 0.00 0.00 45 1019.8
20260906184540 84 128 1.7 2.6 0.00 0.00 0.00 46 1019.9
20260906184036 84 172 0.0 0.0 0.00 0.00 0.00 46 1020.0
20260906183532 83 166 1.7 1.7 0.00 0.00 0.00 47 1020.0
20260906183027 83 165 1.7 2.6 0.00 0.00 0.00 48 1020.2
20260906182522 83 133 2.6 2.6 0.00 0.00 0.00 47 1020.2
20260906182018 80 182 0.0 0.0 0.00 0.00 0.00 51 1020.4
20260906181514 81 151 1.7 1.7 0.00 0.00 0.00 53 1020.4
20260906181009 80 169 0.9 0.9 0.00 0.00 0.00 53 1020.5
20260906180504 81 168 0.0 0.0 0.00 0.00 0.00 52 1020.6
20260906180002 79 119 0.9 0.9 0.00 0.00 0.00 55 1020.9
20260906175457 79 183 0.0 0.0 0.00 0.00 0.00 55 1020.8
20260906174956 80 178 0.0 0.0 0.00 0.00 0.00 54 1020.9
20260906174455 79 159 0.0 0.9 0.00 0.00 0.00 56 1020.9
20260906173950 82 111 0.9 1.7 0.00 0.00 0.00 52 1021.1
20260906173445 81 179 0.0 0.0 0.00 0.00 0.00 53 1021.3
20260906172944 80 166 0.0 0.9 0.00 0.00 0.00 53 1021.5
20260906172436 80 115 1.7 2.6 0.00 0.00 0.00 55 1021.3
20260906171930 78 357 1.7 2.6 0.00 0.00 0.00 58 1021.3
20260906171425 80 23 3.5 3.5 0.00 0.00 0.00 56 1021.6
20260906170920 78 100 0.9 0.9 0.00 0.00 0.00 59 1021.6
20260906170417 77 158 0.9 0.9 0.00 0.00 0.00 59 1021.9
20260906165913 79 65 1.7 1.7 0.00 0.00 0.00 57 1021.8
20260906165412 77 115 1.7 1.7 0.00 0.00 0.00 60 1021.6
20260906164907 78 32 1.7 2.6 0.00 0.00 0.00 57 1021.6
20260906164406 78 95 0.0 0.9 0.00 0.00 0.00 58 1021.6
20260906163902 78 122 0.0 0.9 0.00 0.00 0.00 58 1021.5
20260906163358 78 176 0.0 0.0 0.00 0.00 0.00 58 1021.6
20260906162856 78 172 0.0 0.0 0.00 0.00 0.00 57 1021.5
20260906162349 78 96 0.9 1.7 0.00 0.00 0.00 57 1021.8
20260906161844 78 48 1.7 2.6 0.00 0.00 0.00 58 1021.6
20260906161343 76 209 0.9 1.7 0.00 0.00 0.00 58 1021.6
20260906160843 75 181 0.0 0.0 0.00 0.00 0.00 60 1021.6
20260906160337 76 36 0.9 1.7 0.00 0.00 0.00 59 1021.8
20260906155835 75 139 0.9 0.9 0.00 0.00 0.00 61 1021.9
20260906155329 74 172 0.0 0.0 0.00 0.00 0.00 62 1021.8
20260906154825 74 144 0.9 1.7 0.00 0.00 0.00 62 1021.9
20260906154319 73 61 1.7 1.7 0.00 0.00 0.00 63 1021.9
20260906153818 72 142 1.7 1.7 0.00 0.00 0.00 64 1021.8
20260906153313 73 112 0.0 0.9 0.00 0.00 0.00 63 1021.6
20260906152808 72 164 0.9 1.7 0.00 0.00 0.00 64 1022.0
20260906152306 71 116 1.7 2.6 0.00 0.00 0.00 66 1021.9
20260906151802 71 59 2.6 2.6 0.00 0.00 0.00 67 1021.8
20260906151257 71 116 0.0 0.9 0.00 0.00 0.00 68 1022.1
20260906150753 71 90 1.7 1.7 0.00 0.00 0.00 65 1022.0
20260906150249 70 74 2.6 2.6 0.00 0.00 0.00 68 1021.9
20260906145747 70 73 1.7 1.7 0.00 0.00 0.00 68 1021.9
20260906145245 71 59 2.6 2.6 0.00 0.00 0.00 68 1022.0
20260906144741 69 118 1.7 1.7 0.00 0.00 0.00 70 1021.9
20260906144237 70 59 1.7 2.6 0.00 0.00 0.00 68 1021.9
20260906143736 70 133 1.7 1.7 0.00 0.00 0.00 67 1021.8
20260906143233 68 197 0.0 0.0 0.00 0.00 0.00 68 1021.8
20260906142732 68 165 0.0 0.0 0.00 0.00 0.00 69 1021.6
20260906142228 68 168 0.0 0.0 0.00 0.00 0.00 68 1021.8
20260906141727 68 192 0.9 0.9 0.00 0.00 0.00 68 1021.9
20260906141222 67 193 0.0 0.0 0.00 0.00 0.00 67 1021.9
20260906140721 67 190 0.9 0.9 0.00 0.00 0.00 65 1022.0
20260906140216 66 220 0.0 0.9 0.00 0.00 0.00 67 1021.8
20260906135713 64 197 0.0 0.0 0.00 0.00 0.00 69 1021.9
20260906135209 64 196 0.0 0.9 0.00 0.00 0.00 68 1022.0
20260906134704 64 204 0.0 0.0 0.00 0.00 0.00 68 1021.9
20260906134159 63 189 0.0 0.9 0.00 0.00 0.00 68 1021.9
20260906133655 62 199 0.0 0.0 0.00 0.00 0.00 71 1021.8
20260906133149 62 197 0.0 0.0 0.00 0.00 0.00 72 1022.0
20260906132645 62 197 0.0 0.0 0.00 0.00 0.00 73 1021.9
20260906132140 62 196 0.0 0.0 0.00 0.00 0.00 73 1021.9
20260906131636 62 198 0.0 0.0 0.00 0.00 0.00 72 1021.6
20260906131130 62 191 0.0 0.0 0.00 0.00 0.00 72 1021.6
20260906130627 62 203 0.0 0.0 0.00 0.00 0.00 73 1021.4
20260906130121 62 201 0.0 0.0 0.00 0.00 0.00 73 1021.8
20260906125618 61 201 0.0 0.0 0.00 0.00 0.00 75 1021.5
20260906125112 61 201 0.0 0.0 0.00 0.00 0.00 75 1021.6
20260906124608 61 201 0.0 0.0 0.00 0.00 0.00 75 1021.4
20260906124103 60 201 0.0 0.0 0.00 0.00 0.00 76 1021.5
20260906123603 60 201 0.0 0.0 0.00 0.00 0.00 78 1021.3
20260906123057 60 200 0.0 0.0 0.00 0.00 0.00 79 1021.5
20260906122556 60 200 0.0 0.0 0.00 0.00 0.00 79 1021.5
20260906122053 60 200 0.0 0.0 0.00 0.00 0.00 79 1021.6
20260906121548 61 200 0.0 0.0 0.00 0.00 0.00 78 1021.5
20260906121045 60 200 0.0 0.0 0.00 0.00 0.00 78 1021.4
20260906120540 61 200 0.0 0.0 0.00 0.00 0.00 77 1021.5
20260906120037 61 200 0.0 0.0 0.00 0.00 0.00 77 1021.5
20260906115536 60 200 0.0 0.0 0.00 0.00 0.00 77 1021.5
20260906115032 61 200 0.0 0.0 0.00 0.00 0.00 76 1021.4
20260906114526 61 200 0.0 0.0 0.00 0.00 0.00 75 1021.5
20260906114021 61 200 0.0 0.0 0.00 0.00 0.00 74 1021.4
20260906113520 61 200 0.0 0.0 0.00 0.00 0.00 73 1021.6
20260906113015 61 201 0.0 0.0 0.00 0.00 0.00 73 1021.3
20260906112510 61 201 0.0 0.0 0.00 0.00 0.00 73 1021.4
20260906112008 61 200 0.0 0.0 0.00 0.00 0.00 73 1021.4
20260906111506 62 201 0.0 0.0 0.00 0.00 0.00 72 1021.4
20260906111001 62 201 0.0 0.0 0.00 0.00 0.00 71 1021.5
20260906110456 62 201 0.0 0.0 0.00 0.00 0.00 71 1021.4
20260906105954 62 201 0.0 0.0 0.00 0.00 0.00 71 1021.3
20260906105451 63 201 0.0 0.0 0.00 0.00 0.00 71 1021.4
20260906104947 62 201 0.0 0.0 0.00 0.00 0.00 71 1021.3
20260906104445 63 201 0.0 0.0 0.00 0.00 0.00 70 1021.4
20260906103945 63 200 0.0 0.0 0.00 0.00 0.00 70 1021.3
20260906103443 64 201 0.0 0.0 0.00 0.00 0.00 69 1021.1
20260906102938 64 201 0.0 0.0 0.00 0.00 0.00 69 1021.3
20260906102433 63 200 0.0 0.0 0.00 0.00 0.00 69 1021.2
20260906101933 64 200 0.0 0.0 0.00 0.00 0.00 68 1021.2
20260906101429 64 200 0.0 0.0 0.00 0.00 0.00 68 1021.4
20260906100924 63 200 0.0 0.0 0.00 0.00 0.00 68 1021.4
20260906100423 63 200 0.0 0.0 0.00 0.00 0.00 68 1021.2
20260906095918 63 200 0.0 0.0 0.00 0.00 0.00 68 1021.3
20260906095414 64 200 0.0 0.0 0.00 0.00 0.00 67 1021.2
20260906094913 64 200 0.0 0.0 0.00 0.00 0.00 66 1021.2
20260906094408 65 200 0.0 0.0 0.00 0.00 0.00 65 1021.2
20260906093900 65 200 0.0 0.0 0.00 0.00 0.00 64 1021.1
20260906093355 65 200 0.0 0.0 0.00 0.00 0.00 64 1020.7
20260906092855 65 196 0.0 0.0 0.00 0.00 0.00 65 1020.8
20260906092349 65 196 0.0 0.0 0.00 0.00 0.00 65 1020.8
20260906091850 65 196 0.0 0.0 0.00 0.00 0.00 64 1020.7
20260906091346 65 195 0.0 0.0 0.00 0.00 0.00 64 1020.7
20260906090842 66 198 0.0 0.0 0.00 0.00 0.00 64 1020.6
20260906090341 66 198 0.0 0.0 0.00 0.00 0.00 64 1020.5
20260906085836 66 195 0.0 0.0 0.00 0.00 0.00 64 1020.5
20260906085335 66 191 0.0 0.0 0.00 0.00 0.00 64 1020.6
20260906084825 66 186 0.0 0.0 0.00 0.00 0.00 63 1020.4
20260906084324 66 168 0.0 0.0 0.00 0.00 0.00 63 1020.2
20260906083819 67 198 0.0 0.0 0.00 0.00 0.00 62 1020.5
20260906083314 67 185 0.0 0.0 0.00 0.00 0.00 62 1020.7
20260906082809 67 212 0.0 0.0 0.00 0.00 0.00 62 1020.6
20260906082306 66 182 0.0 0.0 0.00 0.00 0.00 62 1020.9
20260906081759 66 175 0.0 0.0 0.00 0.00 0.00 62 1020.6
20260906081255 66 181 0.0 0.0 0.00 0.00 0.00 63 1020.7
20260906080752 67 177 0.0 0.0 0.00 0.00 0.00 62 1020.8
20260906080248 67 223 0.0 0.9 0.00 0.00 0.00 61 1020.6
20260906075747 67 191 0.0 0.0 0.00 0.00 0.00 61 1020.6
20260906075241 67 216 0.0 0.9 0.00 0.00 0.00 60 1020.5
20260906074737 67 201 0.0 0.9 0.00 0.00 0.00 60 1020.8
20260906074236 67 201 0.9 0.9 0.00 0.00 0.00 60 1020.8
20260906073731 67 185 0.0 0.0 0.00 0.00 0.00 60 1020.7
20260906073231 68 182 0.0 0.0 0.00 0.00 0.00 59 1020.6
20260906072726 68 208 0.0 0.9 0.00 0.00 0.00 58 1020.6
20260906072222 68 205 0.9 0.9 0.00 0.00 0.00 57 1020.5
20260906071718 68 188 0.9 0.9 0.00 0.00 0.00 57 1020.7
20260906071217 68 185 0.0 0.0 0.00 0.00 0.00 57 1020.6
20260906070715 68 139 0.0 0.0 0.00 0.00 0.00 57 1020.8
20260906070210 66 168 0.0 0.0 0.00 0.00 0.00 60 1020.9
20260906065709 67 195 0.0 0.0 0.00 0.00 0.00 59 1020.8
20260906065205 67 195 0.0 0.0 0.00 0.00 0.00 59 1020.8
20260906064700 67 195 0.0 0.0 0.00 0.00 0.00 58 1021.1
20260906064155 67 195 0.0 0.0 0.00 0.00 0.00 57 1020.9
20260906063650 68 194 0.0 0.0 0.00 0.00 0.00 57 1020.9
20260906063146 68 195 0.0 0.0 0.00 0.00 0.00 56 1020.9
20260906062642 67 192 0.0 0.0 0.00 0.00 0.00 56 1021.1
20260906062140 68 192 0.0 0.0 0.00 0.00 0.00 56 1020.7
20260906061637 68 192 0.0 0.0 0.00 0.00 0.00 56 1020.7
20260906061137 69 192 0.0 0.0 0.00 0.00 0.00 55 1020.6
20260906060633 69 191 0.0 0.0 0.00 0.00 0.00 54 1020.7
20260906060131 69 201 0.0 0.0 0.00 0.00 0.00 55 1020.8
20260906055626 69 203 0.0 0.0 0.00 0.00 0.00 55 1020.6
20260906055120 69 201 0.0 0.0 0.00 0.00 0.00 54 1020.6
20260906054616 69 199 0.0 0.9 0.00 0.00 0.00 54 1020.4
20260906054111 69 195 0.0 0.0 0.00 0.00 0.00 53 1020.7
20260906053608 69 204 0.0 0.9 0.00 0.00 0.00 53 1020.8
20260906053103 70 200 0.0 0.0 0.00 0.00 0.00 53 1020.7
20260906052558 70 182 0.0 0.0 0.00 0.00 0.00 52 1020.8
20260906052055 70 182 0.0 0.0 0.00 0.00 0.00 51 1020.9
20260906051550 71 181 0.0 0.0 0.00 0.00 0.00 51 1020.9
20260906051045 71 181 0.0 0.0 0.00 0.00 0.00 51 1020.6
20260906050540 72 172 0.0 0.0 0.00 0.00 0.00 49 1020.5
20260906050036 72 162 0.0 0.9 0.00 0.00 0.00 50 1020.2
20260906045534 71 57 2.6 2.6 0.00 0.00 0.00 50 1020.2
20260906045030 71 189 0.0 0.0 0.00 0.00 0.00 50 1019.7
20260906044525 71 199 0.0 0.9 0.00 0.00 0.00 51 1019.8
20260906044015 71 197 0.0 0.0 0.00 0.00 0.00 51 1019.8
20260906043511 71 178 0.0 0.0 0.00 0.00 0.00 51 1019.8
20260906043007 70 161 0.0 0.0 0.00 0.00 0.00 52 1019.7
20260906042506 71 173 0.0 0.0 0.00 0.00 0.00 50 1019.7
20260906042005 72 182 0.0 0.9 0.00 0.00 0.00 49 1019.4
20260906041502 73 203 0.9 0.9 0.00 0.00 0.00 48 1019.2
20260906041002 73 195 0.0 0.9 0.00 0.00 0.00 49 1019.7
20260906040456 73 211 0.9 0.9 0.00 0.00 0.00 48 1019.7
20260906035951 73 192 0.9 0.9 0.00 0.00 0.00 48 1019.4
20260906035446 74 209 0.9 0.9 0.00 0.00 0.00 47 1019.4
20260906034942 74 209 0.9 0.9 0.00 0.00 0.00 47 1019.4
20260906034436 74 193 0.0 0.0 0.00 0.00 0.00 47 1019.5
20260906033932 75 189 0.0 0.0 0.00 0.00 0.00 45 1019.5
20260906033427 75 197 0.0 0.9 0.00 0.00 0.00 44 1019.4
20260906032923 76 183 0.0 0.0 0.00 0.00 0.00 44 1019.4
20260906032419 76 55 1.7 1.7 0.00 0.00 0.00 44 1019.7
20260906031913 76 189 0.0 0.0 0.00 0.00 0.00 43 1019.5
20260906031408 77 188 0.0 0.0 0.00 0.00 0.00 43 1019.2
20260906030903 77 183 0.0 0.0 0.00 0.00 0.00 43 1019.2
20260906030358 77 143 0.9 0.9 0.00 0.00 0.00 42 1019.2
20260906025852 77 121 0.9 0.9 0.00 0.00 0.00 42 1019.2
20260906025346 78 178 0.0 0.9 0.00 0.00 0.00 42 1019.0
20260906024845 78 92 1.7 1.7 0.00 0.00 0.00 41 1019.1
20260906024344 78 178 0.0 0.0 0.00 0.00 0.00 41 1019.1
20260906023840 79 70 0.9 0.9 0.00 0.00 0.00 41 1019.1
20260906023336 76 50 3.5 3.5 0.00 0.00 0.00 40 1019.1
20260906022831 77 196 0.0 0.0 0.00 0.00 0.00 42 1018.8
20260906022326 77 196 0.0 0.0 0.00 0.00 0.00 41 1018.8
20260906021822 77 196 0.0 0.0 0.00 0.00 0.00 41 1018.7
20260906021321 78 187 0.0 0.0 0.00 0.00 0.00 41 1018.4
20260906020822 78 187 0.0 0.0 0.00 0.00 0.00 40 1018.5
20260906020321 78 186 0.0 0.0 0.00 0.00 0.00 39 1018.6
20260906015816 78 179 0.0 0.0 0.00 0.00 0.00 40 1018.5
20260906015315 79 196 0.0 0.0 0.00 0.00 0.00 40 1018.5
20260906014814 80 206 0.0 0.9 0.00 0.00 0.00 38 1018.3
20260906014310 80 196 0.0 0.0 0.00 0.00 0.00 38 1018.4
20260906013806 81 190 0.0 0.0 0.00 0.00 0.00 37 1018.4
20260906013300 81 201 0.0 0.0 0.00 0.00 0.00 37 1018.1
20260906012756 81 195 0.0 0.0 0.00 0.00 0.00 37 1018.3
20260906012251 82 194 0.0 0.9 0.00 0.00 0.00 36 1018.1
20260906011746 82 338 1.7 2.6 0.00 0.00 0.00 36 1018.3
20260906011246 82 252 1.7 1.7 0.00 0.00 0.00 36 1018.1
20260906010742 82 183 0.0 0.0 0.00 0.00 0.00 36 1018.6
20260906010238 82 184 0.9 0.9 0.00 0.00 0.00 36 1018.5
20260906005733 82 224 1.7 1.7 0.00 0.00 0.00 36 1018.4
20260906005231 82 268 2.6 3.5 0.00 0.00 0.00 36 1018.5
20260906004731 82 287 2.6 2.6 0.00 0.00 0.00 36 1018.6
20260906004226 82 188 0.9 0.9 0.00 0.00 0.00 36 1018.4
20260906003721 83 285 2.6 3.5 0.00 0.00 0.00 36 1018.5
20260906003217 83 278 3.5 5.2 0.00 0.00 0.00 35 1018.6
20260906002717 84 234 1.7 1.7 0.00 0.00 0.00 35 1018.6
20260906002213 85 256 2.6 5.2 0.00 0.00 0.00 34 1018.7
20260906001708 85 116 1.7 1.7 0.00 0.00 0.00 33 1018.5
20260906001208 87 278 3.5 6.1 0.00 0.00 0.00 33 1018.4
20260906000703 87 247 2.6 2.6 0.00 0.00 0.00 32 1018.5
20260906000158 87 185 1.7 2.6 0.00 0.00 0.00 32 1018.4
20260905235657 87 263 1.7 1.7 0.00 0.00 0.00 31 1018.5
20260905235152 88 274 2.6 7.0 0.00 0.00 0.00 30 1018.4
20260905234647 89 320 2.6 2.6 0.00 0.00 0.00 30 1018.4
20260905234143 89 237 1.7 1.7 0.00 0.00 0.00 29 1018.3
20260905233638 89 194 0.9 0.9 0.00 0.00 0.00 30 1018.4
20260905233137 89 178 0.0 0.0 0.00 0.00 0.00 30 1018.3
20260905232633 89 178 0.0 0.0 0.00 0.00 0.00 30 1018.1
20260905232128 90 177 0.0 0.0 0.00 0.00 0.00 30 1018.1
20260905231623 91 176 0.0 0.0 0.00 0.00 0.00 29 1018.0
20260905231119 91 169 0.0 0.9 0.00 0.00 0.00 28 1017.8
20260905230615 91 170 0.0 0.0 0.00 0.00 0.00 28 1017.8
20260905230113 91 180 0.0 0.0 0.00 0.00 0.00 29 1017.7
20260905225613 91 160 0.0 0.0 0.00 0.00 0.00 27 1017.7
20260905225108 91 185 0.9 0.9 0.00 0.00 0.00 27 1017.7
20260905224607 91 147 0.9 0.9 0.00 0.00 0.00 27 1017.5
20260905224106 91 158 0.0 0.0 0.00 0.00 0.00 27 1017.5
20260905223604 91 167 0.0 0.9 0.00 0.00 0.00 28 1017.7
20260905223100 92 57 1.7 2.6 0.00 0.00 0.00 27 1017.5
20260905222600 92 93 3.5 5.2 0.00 0.00 0.00 27 1017.8
20260905222055 92 11 0.9 1.7 0.00 0.00 0.00 27 1017.7
20260905221551 92 135 1.7 2.6 0.00 0.00 0.00 27 1017.6
20260905221047 92 171 0.0 0.9 0.00 0.00 0.00 27 1017.5
20260905220543 92 139 0.9 1.7 0.00 0.00 0.00 27 1017.5
20260905220039 92 144 0.9 0.9 0.00 0.00 0.00 27 1017.7
20260905215538 92 73 2.6 5.2 0.00 0.00 0.00 26 1017.3
20260905215034 92 65 3.5 5.2 0.00 0.00 0.00 27 1017.8